GW7615 Weather Reports


Display with metric or nautical units.
time (UTC)temp
F
wind
direction
speed
MPH
gust
MPH
rain 1hr
in
rain 24hr
in
rain mn
in
humidity
%
barometer
mb
20260906170005 97 185 2.0 5.0 0.00 0.00 0.00 41 1015.3
20260906165005 96 206 2.0 5.0 0.00 0.00 0.00 41 1015.4
20260906164004 96 45 3.0 6.0 0.00 0.00 0.00 40 1015.5
20260906163005 97 48 6.0 7.0 0.00 0.00 0.00 41 1015.4
20260906162005 96 86 2.0 5.0 0.00 0.00 0.00 43 1015.6
20260906161024 0 105 2.0 0.0 0.00 0.00 0.00 43 1015.6
20260906160005 96 113 2.0 4.0 0.00 0.00 0.00 42 1015.6
20260906155005 95 96 1.0 4.0 0.00 0.00 0.00 43 1015.6
20260906154004 95 151 1.0 3.0 0.00 0.00 0.00 43 1015.5
20260906153004 94 74 1.0 4.0 0.00 0.00 0.00 44 1015.4
20260906152004 93 109 1.0 3.0 0.00 0.00 0.00 44 1015.5
20260906151005 91 99 1.0 3.0 0.00 0.00 0.00 47 1015.4
20260906150004 0 92 1.0 0.0 0.00 0.00 0.00 49 1015.4
20260906145005 90 80 1.0 3.0 0.00 0.00 0.00 49 1015.4
20260906144024 90 130 1.0 3.0 0.00 0.00 0.00 50 1015.3
20260906143004 88 186 1.0 2.0 0.00 0.00 0.00 54 1015.4
20260906142024 86 76 1.0 5.0 0.00 0.00 0.00 57 1015.4
20260906141005 85 161 1.0 2.0 0.00 0.00 0.00 57 1015.5
20260906140024 85 211 1.0 0.0 0.00 0.00 0.00 58 1015.4
20260906135005 83 239 1.0 2.0 0.00 0.00 0.00 61 1015.3
20260906134004 82 172 1.0 2.0 0.00 0.00 0.00 64 1015.3
20260906133004 81 194 1.0 2.0 0.00 0.00 0.00 66 1015.4
20260906132024 79 124 0.0 1.0 0.00 0.00 0.00 66 1015.3
20260906131004 77 42 1.0 2.0 0.00 0.00 0.00 72 1015.3
20260906130004 75 189 1.0 3.0 0.00 0.00 0.00 76 1015.2
20260906125005 74 101 1.0 0.0 0.00 0.00 0.00 79 1015.0
20260906124004 73 226 1.0 2.0 0.00 0.00 0.00 79 1014.9
20260906123004 73 107 1.0 1.0 0.00 0.00 0.00 82 1014.7
20260906122004 72 86 1.0 1.0 0.00 0.00 0.00 84 1014.6
20260906121004 73 354 1.0 1.0 0.00 0.00 0.00 82 1014.5
20260906120004 73 181 1.0 2.0 0.00 0.00 0.00 82 1014.6
20260906115005 73 243 1.0 0.0 0.00 0.00 0.00 82 1014.4
20260906114004 73 257 1.0 2.0 0.00 0.00 0.00 80 1014.3
20260906113004 73 138 0.0 1.0 0.00 0.00 0.00 81 1014.2
20260906112005 73 84 1.0 2.0 0.00 0.00 0.00 80 1014.1
20260906111004 73 87 1.0 1.0 0.00 0.00 0.00 79 1014.1
20260906110004 74 85 1.0 1.0 0.00 0.00 0.00 78 1014.1
20260906105005 74 106 1.0 2.0 0.00 0.00 0.00 78 1014.0
20260906104004 0 88 1.0 0.0 0.00 0.00 0.00 78 1014.0
20260906103004 73 95 0.0 1.0 0.00 0.00 0.00 79 1013.9
20260906102004 73 67 1.0 1.0 0.00 0.00 0.00 78 1013.9
20260906101004 74 50 1.0 2.0 0.00 0.00 0.00 78 1014.0
20260906100004 74 44 1.0 2.0 0.00 0.00 0.00 78 1014.0
20260906095006 74 93 1.0 2.0 0.00 0.00 0.00 77 1013.9
20260906094004 74 107 1.0 0.0 0.00 0.00 0.00 77 1013.9
20260906093004 75 146 0.0 1.0 0.00 0.00 0.00 75 1013.9
20260906092004 75 122 1.0 1.0 0.00 0.00 0.00 75 1013.8
20260906091004 76 104 1.0 3.0 0.00 0.00 0.00 73 1013.8
20260906090004 75 69 1.0 2.0 0.00 0.00 0.00 73 1013.7
20260906085005 75 22 1.0 2.0 0.00 0.00 0.00 73 1013.6
20260906084004 76 346 1.0 4.0 0.00 0.00 0.00 73 1013.7
20260906083004 0 121 1.0 0.0 0.00 0.00 0.00 73 1013.7
20260906082004 77 344 1.0 5.0 0.00 0.00 0.00 71 1013.7
20260906081004 76 49 3.0 3.0 0.00 0.00 0.00 69 1013.7
20260906080005 77 73 1.0 2.0 0.00 0.00 0.00 71 1013.6
20260906075025 78 298 1.0 2.0 0.00 0.00 0.00 68 1013.5
20260906074004 78 174 1.0 2.0 0.00 0.00 0.00 67 1013.6
20260906073004 78 190 1.0 2.0 0.00 0.00 0.00 68 1013.6
20260906072004 78 87 1.0 0.0 0.00 0.00 0.00 67 1013.7
20260906071005 78 202 1.0 2.0 0.00 0.00 0.00 66 1013.8
20260906070005 78 94 1.0 1.0 0.00 0.00 0.00 66 1013.8
20260906065026 79 183 1.0 1.0 0.00 0.00 0.00 65 1013.9
20260906064005 79 177 1.0 2.0 0.00 0.00 0.00 63 1013.9
20260906063005 79 71 1.0 1.0 0.00 0.00 0.00 63 1013.9
20260906062005 79 79 1.0 2.0 0.00 0.00 0.00 63 1014.0
20260906061025 0 25 1.0 0.0 0.00 0.00 0.00 63 1013.8
20260906060005 82 147 1.0 2.0 0.00 0.00 0.00 59 1013.8
20260906055005 82 180 1.0 3.0 0.00 0.00 0.00 56 1013.9
20260906054025 83 105 1.0 2.0 0.00 0.00 0.00 55 1013.8
20260906053005 83 79 1.0 4.0 0.00 0.00 0.00 55 1013.7
20260906052005 83 120 1.0 3.0 0.00 0.00 0.00 55 1013.7
20260906051005 83 78 1.0 0.0 0.00 0.00 0.00 54 1013.6
20260906050005 84 65 1.0 3.0 0.00 0.00 0.00 54 1013.6
20260906045005 84 117 1.0 4.0 0.00 0.00 0.00 52 1013.5
20260906044004 84 101 1.0 4.0 0.00 0.00 0.00 52 1013.6
20260906043005 84 106 1.0 3.0 0.00 0.00 0.00 52 1013.7
20260906042005 84 96 1.0 4.0 0.00 0.00 0.00 52 1013.7
20260906041025 85 88 1.0 4.0 0.00 0.00 0.00 52 1013.6
20260906040005 0 143 1.0 0.0 0.00 0.00 0.00 52 1013.5
20260906035006 85 98 2.0 5.0 0.00 0.00 0.00 53 1013.6
20260906034005 85 132 1.0 4.0 0.00 0.00 0.00 54 1013.6
20260906033004 85 79 1.0 4.0 0.00 0.00 0.00 54 1013.6
20260906032024 85 109 1.0 3.0 0.00 0.00 0.00 55 1013.5
20260906031004 85 104 1.0 4.0 0.00 0.00 0.00 55 1013.5
20260906030005 85 118 1.0 3.0 0.00 0.00 0.00 55 1013.4
20260906025005 0 86 1.0 0.0 0.00 0.00 0.00 54 1013.3
20260906024004 86 100 1.0 3.0 0.00 0.00 0.00 54 1013.3
20260906023004 86 127 1.0 3.0 0.00 0.00 0.00 53 1013.2
20260906022004 86 123 1.0 4.0 0.00 0.00 0.00 52 1013.1
20260906021024 87 87 1.0 3.0 0.00 0.00 0.00 52 1012.9
20260906020004 87 94 1.0 5.0 0.00 0.00 0.00 51 1012.8
20260906015005 88 62 1.0 0.0 0.00 0.00 0.00 50 1012.6
20260906014005 88 77 3.0 6.0 0.00 0.00 0.00 49 1012.5
20260906013024 89 70 2.0 6.0 0.00 0.00 0.00 48 1012.5
20260906012005 90 74 2.0 4.0 0.00 0.00 0.00 46 1012.4
20260906011024 90 105 1.0 3.0 0.00 0.00 0.00 47 1012.3
20260906010004 91 80 2.0 4.0 0.00 0.00 0.00 45 1012.2
20260906005005 91 74 2.0 3.0 0.00 0.00 0.00 44 1012.1
20260906004004 0 91 2.0 0.0 0.00 0.00 0.00 43 1012.2
20260906003004 95 90 2.0 2.0 0.00 0.00 0.00 41 1012.2
20260906002004 98 95 1.0 1.0 0.00 0.00 0.00 37 1012.1
20260906001024 99 136 1.0 2.0 0.00 0.00 0.00 33 1012.1
20260906000024 100 115 1.0 3.0 0.00 0.00 0.00 32 1012.2
20260905235025 100 140 1.0 3.0 0.00 0.00 0.00 32 1012.1
20260905234004 100 103 2.0 0.0 0.00 0.00 0.00 30 1012.1
20260905233004 100 120 1.0 3.0 0.00 0.00 0.00 30 1012.1
20260905232004 100 169 1.0 3.0 0.00 0.00 0.00 30 1012.1
20260905231004 101 167 1.0 4.0 0.00 0.00 0.00 30 1012.1
20260905230004 101 123 1.0 3.0 0.00 0.00 0.00 30 1012.1
20260905225005 101 111 2.0 5.0 0.00 0.00 0.00 31 1012.0
20260905224004 101 106 2.0 5.0 0.00 0.00 0.00 29 1011.9
20260905223004 0 123 2.0 0.0 0.00 0.00 0.00 30 1011.9
20260905222004 100 129 1.0 5.0 0.00 0.00 0.00 29 1011.9
20260905221004 101 95 2.0 7.0 0.00 0.00 0.00 30 1012.0
20260905220004 101 181 1.0 5.0 0.00 0.00 0.00 30 1012.2
20260905215005 101 123 1.0 5.0 0.00 0.00 0.00 29 1012.2
20260905214004 101 75 3.0 6.0 0.00 0.00 0.00 30 1012.2
20260905213004 101 110 3.0 7.0 0.00 0.00 0.00 30 1012.3
20260905212024 101 119 2.0 0.0 0.00 0.00 0.00 32 1012.4
20260905211024 101 224 3.0 5.0 0.00 0.00 0.00 32 1012.6
20260905210004 100 234 2.0 5.0 0.00 0.00 0.00 33 1012.8
20260905205005 101 152 2.0 5.0 0.00 0.00 0.00 33 1013.0
20260905204004 100 114 3.0 5.0 0.00 0.00 0.00 32 1013.1
20260905203004 99 105 2.0 4.0 0.00 0.00 0.00 34 1013.2
20260905202004 98 135 2.0 5.0 0.00 0.00 0.00 35 1013.3
20260905201004 0 151 2.0 0.0 0.00 0.00 0.00 35 1013.5
20260905200004 99 90 2.0 7.0 0.00 0.00 0.00 36 1013.6
20260905195005 98 63 2.0 5.0 0.00 0.00 0.00 36 1013.7
20260905194004 96 66 3.0 7.0 0.00 0.00 0.00 37 1013.8
20260905193024 97 66 2.0 6.0 0.00 0.00 0.00 37 1013.9
20260905192004 99 101 3.0 7.0 0.00 0.00 0.00 37 1014.0
20260905191004 98 97 2.0 6.0 0.00 0.00 0.00 38 1014.1
20260905190004 0 187 2.0 0.0 0.00 0.00 0.00 36 1014.3
20260905185005 97 76 3.0 5.0 0.00 0.00 0.00 36 1014.6
20260905184004 97 61 2.0 6.0 0.00 0.00 0.00 38 1014.6
20260905183004 98 98 2.0 8.0 0.00 0.00 0.00 40 1014.7
20260905182005 98 77 4.0 9.0 0.00 0.00 0.00 38 1014.8
20260905181025 97 71 3.0 5.0 0.00 0.00 0.00 39 1015.0
20260905180005 96 354 2.0 0.0 0.00 0.00 0.00 39 1015.1
20260905175025 97 43 3.0 8.0 0.00 0.00 0.00 40 1015.2
20260905174005 96 103 2.0 8.0 0.00 0.00 0.00 40 1015.4
20260905173005 96 63 3.0 6.0 0.00 0.00 0.00 41 1015.5
20260905172005 95 92 2.0 7.0 0.00 0.00 0.00 43 1015.6
20260905171005 95 45 3.0 7.0 0.00 0.00 0.00 42 1015.7